CAPE
3068 3171 3108 3029 3002 2766 2544 2588 2375 2489 2374 2720 2950 3007 3050 2765 2345 2039 2507 2152 1796 2108 2593 2656 2990 2949 2611 2788 2410 2538 3193 3166 3073 3483 3809 4109 4128 3780 3653 3882 3900 3988 4210 3992 3312 3437 3883 3782 3897 4082 4102 4090 4005 3690 3468 3741 4130 4161 4126 4480 4594 4229 3792 3570 3369 3398 3720 3695 3443 3014 2743 2731 2289 2343 2447 2432 2181 2839 3022 3338 3270 3013 2920 2892 2799
3417 3509 3343 2959 2736 2747 2395 2308 2464 2519 2218 2431 2833 3021 2986 2981 2862 2524 2432 2642 2073 1665 2323 2418 2961 2986 2790 2861 2550 2764 3425 3460 3022 3376 3782 3920 3866 3352 3416 4061 3868 3897 3960 3895 3848 3617 3926 4026 4028 4117 4421 4080 3697 3543 3558 2928 3124 3405 4016 3555 3674 4165 4198 4058 4053 3937 3769 3864 3788 3600 3369 3418 3039 3071 3186 3407 3551 4049 4353 4223 3848 3579 3741 3498 3372
3510 3697 3335 3142 3069 2583 2518 2436 2430 2384 2043 2262 2325 2464 2838 2794 2968 2690 1954 2097 2367 1879 2032 2027 2640 3066 2878 2950 2926 2856 3352 3407 3022 3088 3502 3794 3822 3294 2928 3190 3693 3746 3826 3986 3727 3707 3822 4061 3934 3938 3748 3732 3861 3576 3166 3222 2924 3161 3558 3459 3558 3441 4037 4276 4087 3988 3800 3712 3924 3679 3295 3527 3718 4159 4392 4349 4129 3920 3738 3583 3407 3411 3599 3487 3232
3367 3353 3355 3000 2634 2646 2624 2526 2215 2285 2283 2218 2241 2483 2650 2363 2877 2701 1852 1870 2117 2301 2077 2017 2845 3153 3010 3046 2928 2679 3460 3058 2926 3052 3428 3708 3702 3743 3435 3154 3120 3438 3732 3722 3666 3660 3602 3783 3623 3576 3659 3590 3895 3874 3726 3494 3445 3618 3172 3000 3550 4085 4013 4344 4890 4194 4274 3993 4038 4090 4039 3965 3996 4131 4332 4254 3968 3786 3732 3612 3683 3662 3602 3548 3336
3299 3224 3144 2715 2546 2649 2420 2429 2432 2384 2116 2134 2242 2391 2764 2573 2388 2302 1942 1757 1924 2102 2470 2243 2733 3220 2904 3139 3057 2659 3171 2957 2950 2698 3029 3322 3626 3568 3504 3512 3308 3386 3552 3740 3827 3562 3587 3498 3537 3478 3594 3675 3868 3812 3673 4036 3920 3512 3647 3714 3567 3505 3347 3398 3489 3843 3903 3789 3751 4004 4336 4287 4170 4073 3992 3709 3902 4089 4238 4359 4267 3778 3868 3472 3262
3370 3265 3074 2657 2618 2753 2551 2453 2279 2264 2235 2225 2344 2220 2358 2402 2272 2501 2030 1825 2000 1882 2464 2479 2622 3004 2745 2872 3186 2966 3062 3078 3153 2926 2630 2809 3297 3394 3588 3537 3143 3312 3488 3536 3526 3463 3416 3467 3530 3786 3594 3415 3331 3490 3874 3922 4074 3895 3692 3909 4298 4325 4479 4616 4846 4855 4620 4323 4224 4110 4026 3847 3772 4059 4377 4466 4099 4040 4243 4181 4045 4035 4114 4119 3845
3898 3282 3002 2511 2819 2977 2521 2493 2515 2310 2537 2346 2255 2330 2271 2196 2308 2338 2240 1901 1694 1650 1793 2480 2708 2982 2910 2830 2853 3178 3178 3144 3440 3442 3025 2682 2921 3368 3252 3482 3277 3222 3311 3269 3176 3179 3264 3423 3645 3738 3685 3663 3464 3503 4052 4294 3865 3735 4200 4488 4256 4400 4353 4361 4745 4910 4649 4371 4168 4065 3976 4092 4073 4007 4767 4792 4902 4495 4067 4166 4282 4353 4607 4885 4344
3904 3712 3365 2999 3018 3168 3008 2633 2450 2731 2630 2589 2715 2730 2335 2128 2796 2889 2802 2381 1645 1738 1819 2161 2763 2991 3023 2908 2810 3246 3429 3352 3653 3741 3493 2992 2945 3293 3366 3266 3159 3167 2962 3282 3286 3047 3196 3191 2894 3300 3554 3654 3665 3659 3723 4049 4216 3887 4054 4238 4485 4656 4528 4439 4602 4624 4560 4287 4124 4054 4052 4021 4012 4022 4000 3937 4144 4661 4966 4855 4550 4471 4433 4534 4463
3796 3643 3501 3225 3243 3435 3352 3074 2954 3025 2912 2910 2880 2720 2455 2480 2979 3143 2948 2422 1806 1651 1990 1953 2375 2766 3235 3127 3044 3168 3511 3445 3554 3809 3634 3339 2857 2916 3196 3162 3113 3017 3104 2991 3119 3252 3120 2765 2706 2631 3149 3816 3556 3542 3408 3573 3908 4144 4391 4610 4866 4987 5119 4982 4753 4618 4465 4175 3882 3819 3882 3926 4009 4195 4376 4663 4690 4419 4932 4812 4584 4560 4533 4216 4200
3808 3643 3607 3555 3718 3680 3619 3278 3121 3209 3084 3104 3061 2867 2842 2803 2644 2986 3013 2748 2332 1779 1718 2464 2339 2582 3323 3651 3503 3289 3435 3495 3326 3291 3296 3343 3066 2377 2927 3231 3036 2806 3205 3225 3070 3170 2956 2541 1665 2405 2789 3328 3047 2960 3032 3154 3475 4067 4516 5087 4981 5009 5098 4989 4911 4721 4522 4250 3956 3697 3664 3686 3768 3841 4312 4827 4813 4946 4578 4503 4345 4335 4224 4207 4193
3941 3884 4015 4014 4119 3882 3782 3572 3324 3352 3351 3391 3265 3174 3105 2978 2806 2902 3186 3002 2566 2451 2037 2592 2480 2420 2737 3299 3468 3370 3504 3394 3314 3085 3165 3093 3030 2800 2699 3310 3398 3321 3079 3269 3110 2772 2539 2515 2106 2244 3364 3786 3139 2743 2842 3003 3142 3327 3542 3787 4409 5669 5244 5103 4786 4594 4429 4199 4007 3957 3839 3831 4131 4292 4454 3920 5162 4375 4465 4360 4232 4180 4167 4051 3940
3928 4150 4345 4292 4461 4236 3996 3833 3470 3534 3630 3604 3427 3424 3457 3224 3053 2965 3188 3055 3026 2794 2438 2326 2592 2740 2706 3084 3177 3292 3495 3497 3383 3193 3288 3224 3010 3040 2788 2995 3372 3533 3413 2862 3130 3076 2776 2294 2159 1772 1927 2428 4604 3711 2874 2957 3138 3288 3310 3278 3238 3010 2641 3061 3343 3720 4371 4546 4423 4134 3920 3929 4220 4439 4638 4984 4966 4844 4689 4453 4298 4311 4161 3919 3772
3996 4293 4358 4394 4687 4464 4223 4091 3775 3663 3826 3834 3707 3569 3573 3526 3293 3147 3170 3255 3191 3181 2730 2446 2448 2754 2901 3052 3155 3335 3309 2799 3202 3187 3231 3302 3156 2971 2764 2533 2477 3100 3292 3214 2833 2933 2970 2732 2225 1570 1141 2537 3279 4559 4250 3449 3104 3262 3310 3238 3097 2928 2665 2265 1882 1668 2138 2763 3280 3672 3831 4176 4339 4605 4782 5312 4999 4748 4650 4463 4445 4134 3862 3613 3444
4069 4227 4424 4588 4726 4758 4532 4326 4074 3820 3944 4052 4013 3722 3564 3710 3501 3247 3092 3476 3509 3455 3148 2768 2604 2703 2969 3320 3222 3193 3218 2711 2958 3195 3171 3192 3242 3155 3292 2877 2590 2498 3100 3447 3126 2933 3203 3143 2802 2388 1961 2266 3543 3777 5147 4478 4168 3435 3186 3193 3102 3001 2883 2712 2474 2212 1969 1837 1999 2284 2654 3151 3438 3665 3984 4331 4549 4520 4606 4569 4132 3657 3399 3203 3031
4234 4331 4508 4680 4839 4982 4905 4607 4323 4069 4093 4128 4186 3940 3673 3744 3805 3480 3099 3396 3728 3664 3314 2923 2912 2921 2796 3266 3549 3118 3014 2959 2597 3011 3171 3154 3204 3195 3322 3288 2761 2550 2848 3364 3540 3210 3142 3300 3316 3183 2961 2622 2748 4390 4712 5210 5372 5032 4236 3828 3706 3456 3279 3211 3167 3057 2816 2458 2101 2034 2347 2636 2781 2927 3583 4054 4415 5191 4655 3953 3454 3314 3109 2715 2498
4540 4404 4627 4876 4945 5074 5044 4848 4690 4293 4234 4212 4285 4129 3906 3832 3912 3582 2824 2623 3161 3793 3812 3226 3166 3149 2949 2676 2600 3163 2696 3152 2777 2759 3013 3103 3100 3143 3093 3535 3448 3430 3139 3092 3579 3852 3624 3464 3509 3477 3489 3805 3567 2826 3773 4753 5077 5609 5614 5169 4771 4416 4168 4118 3942 3753 3521 3371 3044 3000 3247 3126 2992 3866 4449 4198 4174 3836 3599 3581 3302 2873 2670 2382 2185
4644 4483 4520 4897 4909 5067 4943 4866 4959 4654 4376 4274 4325 4261 4028 3892 3911 3718 3158 2735 2910 3388 3557 3264 3310 2965 2773 2834 2705 2804 3605 2925 2843 2754 2753 2961 3015 2943 3079 3320 3364 3279 3250 3800 3994 4133 4227 4081 4160 4035 3978 4030 3916 3583 2933 3608 4808 4990 5029 5105 4980 4750 4652 4851 4540 4393 4252 4102 3893 3653 3463 3341 3165 3505 3762 3867 3718 3666 3635 3291 2640 2339 2113 1815 1639
4712 4574 4468 4743 4760 4836 4946 5014 5059 4974 4689 4404 4417 4342 4264 3878 3702 3830 3538 3213 2851 3072 3367 3680 3416 3089 2838 2902 2615 3096 3445 2881 2706 2696 2705 2781 2827 2854 3156 3360 3260 2959 2934 3098 3484 4016 4145 4370 4794 4497 4380 4375 4190 3861 3661 3375 4050 4450 4574 4498 4390 4214 4122 3930 4085 4720 4176 4126 4028 3913 3762 3546 3356 3492 3560 3598 3787 3841 3383 2872 2205 1911 1671 1850 2095
4648 4678 4457 4513 4695 4924 4918 4889 5093 4990 5047 4842 4616 4821 4403 3951 3652 3851 3491 3302 3296 3680 3651 3714 3407 3317 2992 2954 2982 3064 2893 3868 2637 2545 2612 2674 2723 2917 3305 3395 3256 3066 2949 2858 2940 3213 3637 3932 4108 4248 4372 4357 4193 4113 3987 3844 4078 4407 4516 4195 4039 3941 3710 3748 4938 5023 5269 4234 3841 3652 3649 3680 3714 3794 3876 4037 4065 3637 2926 2402 2043 1624 1898 2317 2272
4464 4604 4448 4438 4643 4738 4574 4760 4944 4941 5201 5136 5030 5089 4872 4157 4136 4193 3847 3341 3098 3110 3392 3694 3741 3527 3107 3233 3524 3368 2919 3949 2640 2488 2533 2654 2767 2960 3558 3467 3268 3324 3364 3422 3370 3310 3258 3476 3654 3421 3532 3764 3799 3829 3996 4058 4059 4562 4480 4328 4210 4299 4111 4546 5453 6161 6061 5067 4692 4439 4415 4782 4337 4004 3856 3848 3763 3446 2913 1922 2010 2166 2300 2330 1640
4347 4625 4555 4338 4509 4651 4573 4777 4778 4697 4901 5056 4981 4991 4626 4394 4043 4045 3670 3363 3232 2953 2995 3282 3438 3686 3366 3419 3313 3548 3292 3604 3325 2600 2451 2552 2703 2845 3695 3606 3488 3513 3612 3546 3544 3545 3656 3628 3499 3618 3494 3443 3447 3576 3762 3911 3970 4200 4739 4611 4698 4880 4637 5159 5081 4772 5041 5150 5348 5305 5116 5105 4681 4196 3630 3482 3050 3086 2933 2246 2063 2636 1770 1754 1714
4367 4766 4878 4710 4522 4395 4332 4705 4806 4396 4787 5054 5089 4962 4919 4654 4501 4364 3786 3873 3782 3531 2954 2789 2920 3265 3459 3538 3350 3331 3494 3458 3286 3210 2765 2446 2566 2645 3456 3922 3604 3627 3690 3719 3701 3605 3845 4400 4189 3873 3720 3606 3453 3373 3466 3627 3788 3849 4268 4316 4218 4070 4007 4038 4093 4073 4135 4641 4959 4587 4412 4153 3471 3555 3023 2223 1771 1679 1747 1978 2029 2042 2027 1745 1673
4764 5107 5103 4895 4940 4884 4902 4991 4778 4287 4606 5115 5164 5136 5148 4832 4753 4755 4552 4220 4080 4028 3684 3213 2942 2989 3205 3406 3421 3739 3796 3409 3480 3228 3124 2951 2704 2548 2793 3389 3454 3462 3614 3784 3860 3947 4067 4108 4288 4154 3845 3755 3720 3631 3489 3388 3397 3448 3512 3606 3759 3811 3767 3628 3460 3362 3415 3601 4118 4325 4143 3724 3484 3129 2833 1952 1807 1806 2159 2143 2118 2048 1956 1794 1644
5074 5243 4994 4927 5054 4987 4965 4863 4930 4610 4874 5146 5252 5225 5184 4992 4946 4930 4720 4400 4240 4150 4108 3773 3309 2879 2945 3263 3414 3982 4474 4872 3440 3350 3177 3106 3017 2912 2778 2802 3256 3429 3510 3688 4103 4232 4314 4436 4308 4016 4018 3916 3792 3739 3723 3629 3471 3270 3124 3081 3096 3171 3208 3222 3146 3085 3013 3059 3360 3796 3775 3548 3404 3081 2190 1964 2094 2361 2279 2228 2130 2005 1912 1778 1645
5135 5216 5122 4975 4999 4926 4894 4860 4973 4931 5141 5157 5279 5314 5129 4910 4979 5076 4894 4613 4376 4227 4299 4027 3781 3286 3099 3186 3422 4074 4486 5055 3499 3256 3261 3185 3136 3082 3031 2948 2869 3133 3260 3687 3687 4154 4326 4253 4205 4374 4006 3906 3978 3964 3930 3853 3729 3539 3280 3095 2985 2925 2865 2810 2703 2914 3130 3325 3558 3915 3649 3299 2826 2728 1909 2019 2130 2251 2312 2222 2043 1955 1833 1731 1511
5106 5124 5041 4876 4902 4702 4793 4613 4921 4991 5217 5156 5181 5140 4889 4698 4754 5096 4871 4568 4393 4316 4309 4054 4027 3751 3812 3676 3783 4029 4402 4333 4492 3518 3169 3216 3175 3179 3111 3120 3088 2981 3016 3540 3376 3456 3571 3560 3679 3723 3711 3890 3799 3812 3825 3794 3735 3617 3424 3181 3006 2806 2601 2534 2845 2946 3171 3687 3880 3680 3244 2697 1909 1658 1562 1962 2356 2427 2273 2147 1978 1918 1792 1710 1343
5042 5010 5095 4844 4808 4615 4438 4148 4440 4560 4744 4775 4713 4837 4756 4541 4403 4814 4454 4052 4126 4400 4436 4146 4150 3964 3984 3942 3932 4097 4218 4462 4528 3837 3587 3426 3406 3410 3401 3323 3167 3040 3002 2955 3011 3136 3216 3363 3439 3363 3212 3213 3502 3522 3483 3424 3424 3399 3309 3063 2887 2590 2494 2830 3233 3525 3617 3735 3298 3030 2171 1920 1738 1668 2039 2412 2484 2431 2187 1929 1755 1821 1860 1591 1166
5121 5079 5005 4752 4584 4647 4549 3859 4077 3765 4086 4087 3829 3963 4119 4329 4386 4523 4222 4210 4315 4184 4251 4168 4163 4142 4061 3831 3880 4027 4214 4260 4482 4258 3859 3694 3604 3530 3509 3461 3411 3373 3296 3255 3164 3021 2987 3100 3180 3248 3245 3123 3088 3229 3200 3147 3108 3185 3147 3116 3050 2845 2717 2722 3120 3662 2980 2942 2620 2238 2152 1983 1931 2156 2379 2449 2428 2386 2190 1948 1867 1922 1704 1211 855
4916 5016 4806 4654 4342 4062 4425 4334 4347 3910 4272 4462 4378 6170 5156 4638 4406 4191 4064 4462 4200 4054 4025 3988 4373 4188 4121 4074 4060 3966 4080 4088 4083 4865 3901 3802 3742 3617 3553 3536 3512 3504 3478 3471 3401 3325 3119 2911 2742 3086 3185 3104 3111 3197 3160 3193 3207 3192 3172 3149 3077 2989 2810 2686 2774 2792 2795 2685 2626 2504 2310 2294 2282 2158 1843 2078 2182 2157 2020 1885 1857 1726 1357 978 786
4976 4964 4745 4471 4294 4047 4149 4332 4243 3600 3950 3754 3946 3884 3876 3874 3997 5196 4435 3979 3901 3962 4022 4502 4340 3794 3372 4047 4008 4224 4516 4152 4052 3859 4116 3947 3788 3652 3655 3645 3575 3622 3667 3714 3729 3618 3373 3082 2877 2879 2969 3078 3165 3237 3242 3247 3051 2987 2909 2828 2765 2718 2838 2757 2638 2579 2611 2629 2578 2450 2399 2340 2281 2146 2255 2322 2326 2246 1965 1789 1733 1310 1028 890 587
4727 4814 4581 4373 4085 4145 4228 4258 4329 4304 4322 3600 3740 3812 3898 3863 3872 3940 4076 3822 3880 3762 3758 3795 3572 3570 4382 4173 3834 3898 4168 4570 4233 4119 4267 4143 4093 3996 3862 3884 3952 3942 3909 3861 3840 3738 3515 3311 3243 3244 3284 3278 3223 3104 2995 2883 2924 2823 2786 2850 2946 2920 2881 2805 2651 2563 2580 2508 2445 2538 2509 2446 2371 2243 2198 2152 2065 2003 1729 1480 1108 972 864 695 459
4826 4617 4717 4477 4030 3841 4403 4292 4298 4595 4556 4076 3718 3781 3776 3742 3709 3788 4014 3830 3662 3623 3683 3675 3508 3589 4559 3984 3847 3841 4006 4114 4122 4074 3939 4027 3996 3938 3876 3890 4000 4037 4076 4034 3950 3883 3712 3601 3551 3523 3551 3568 3549 3483 3421 3311 3264 3258 3245 3217 3260 3225 3252 3160 2978 2699 2671 2697 2415 2429 2599 2597 2330 2126 1897 1785 1803 1718 1618 1365 1080 886 834 712 304
3544 4284 4532 4569 4456 3788 4346 4420 4267 4873 4888 4002 3735 3612 3591 3593 3564 3729 3925 3987 3724 3677 3711 3709 3656 3598 3865 4011 3945 3790 3766 3828 3862 3828 3855 3929 3879 4030 4082 4092 4048 4052 4034 3984 3914 3830 3784 3745 3746 3721 3701 3731 3697 3655 3620 3577 3548 3504 3466 3421 3468 3472 3395 3227 2895 2859 2858 2807 2544 2323 2040 2141 2134 1982 1796 1792 1504 1273 1207 951 820 860 740 552 422
3078 3270 3330 3143 3467 4054 4421 4606 4380 5231 5202 4505 4386 4121 3584 3484 3490 3614 3800 3950 3903 3784 3774 3782 3749 3817 3873 3950 3982 3963 3843 3704 3777 3788 3775 4063 4196 4181 4160 4140 4122 4119 4070 4078 4034 4026 3920 3839 3805 3790 3796 3784 3750 3707 3684 3672 3648 3603 3568 3577 3527 3527 3228 2958 2964 2664 2414 2313 2287 2035 1849 1914 2134 1632 1482 1413 1101 865 847 836 805 732 602 618 584
2801 2748 2727 2672 3230 3146 3716 4688 4519 5045 5518 4995 4609 4416 4192 3928 3496 3555 3688 3910 4038 4080 4011 3892 3793 3764 3872 3916 3934 3935 3926 3860 3821 3776 3985 4030 4064 4082 4079 4088 4092 4101 4088 4069 4088 4097 4046 3963 3906 3828 3761 3727 3740 3732 3727 3735 3756 3714 3708 3642 3451 2932 2849 2642 2828 2860 2590 2192 2180 1969 1737 1570 1430 1316 1329 1168 1231 1276 1240 1044 898 819 804 728 610
2650 2443 2100 2212 2545 2733 3048 4005 4480 4696 5532 5722 5146 4840 4702 4344 3689 3652 3688 3743 3818 4016 4083 4028 3906 3832 3856 3895 3907 3934 3941 3926 3973 3983 3944 3941 4027 4045 4060 4120 4104 4146 4151 4128 4074 3986 3871 3853 3806 3784 3702 3604 3578 3637 3699 3653 3504 3419 3357 3390 3151 2809 2768 2725 2720 2640 2252 2135 2013 1803 1710 1751 1593 1268 998 976 1036 1104 1006 867 784 698 558 488 316
2203 2073 1936 1927 2022 2227 2454 2819 3513 5087 5137 5283 5522 5515 5257 4870 4521 4356 4072 4201 3837 3836 3914 4037 4095 4134 4095 4036 3974 3987 3981 3974 3989 4025 4057 4042 4005 3984 3905 3986 4030 4059 4065 4008 3884 3821 3805 3833 3822 3806 3758 3704 3639 3637 3596 3502 3445 3411 3440 3273 3070 2983 2812 2496 2369 2283 2142 2096 2049 1734 1504 1343 1349 1160 1008 968 1029 952 811 542 544 555 520 453 303
1764 1928 1876 1937 1888 2356 2384 2565 3612 3858 4238 5146 4558 4458 4250 3929 3689 4095 4464 4241 4095 4011 3943 3941 3929 4086 4214 4198 4122 4160 4124 4042 3961 3913 3950 3988 4066 4049 4046 3873 3772 3858 3903 3841 3771 3730 3798 3858 3887 3891 3829 3782 3733 3739 3673 3584 3520 3515 3041 2625 2676 2823 2584 2349 1986 1750 1837 2014 1825 1642 1518 1354 1140 1113 1098 996 689 544 501 515 394 332 126 0 0
1582 1734 1981 2107 1996 2156 2229 2356 2885 3499 3621 4232 4251 3720 3184 3052 3435 3615 4218 4241 4145 4019 3950 3868 3833 3821 3858 3962 4080 4131 4149 4169 4068 3944 3875 3794 3758 3770 3776 3768 3825 3896 3902 3893 3841 3750 3777 3818 3763 3813 3844 3894 3757 3628 3622 3620 3230 2611 2282 2396 2436 2255 2081 2018 1940 1904 1843 1705 1536 1347 1344 1240 1134 1011 690 620 485 420 166 1 8 6 2 0 0
1125 1154 2064 2083 2240 2082 2362 2655 2848 3409 3574 3841 3616 3250 3328 3245 3326 3375 3427 3578 3647 3558 3464 3370 3394 3389 3339 3266 3405 3660 3848 3872 3875 3813 3675 3578 3564 3581 3662 3793 3881 3959 3959 3806 3694 3566 3588 3596 3622 3587 3348 3171 3012 2974 3086 3050 2775 2730 2469 2403 2258 2120 1792 1718 1627 1638 1686 1678 1600 1505 1082 848 796 809 644 474 142 1 277 310 199 3 4 5 6
813 1187 1725 2031 2026 2014 1887 2338 2875 3330 3398 3188 3096 3216 3218 3333 3351 3276 3287 3272 3318 3198 2976 2899 2734 2560 2509 2622 2739 2943 3137 3239 3275 3348 3433 3559 3588 3632 3744 3775 3653 3641 3664 3611 3462 3308 3293 3386 2914 2958 3005 2822 2441 2605 2383 2121 2076 2037 2167 1965 1682 1603 1527 1444 1258 1160 1068 1005 917 710 608 778 836 665 581 485 229 97 6 10 2 9 12 8 6
5 747 1071 1308 1613 1907 1984 2186 2248 2824 2804 2856 2973 3012 3184 3201 3204 3149 3117 3017 2850 2600 2398 2387 2583 2838 2976 3068 3065 3057 3088 3031 3098 3289 3373 3502 3586 3659 3610 3449 3242 3210 3270 3228 3070 3014 3032 3015 2898 2816 2789 2815 2755 2664 2453 2279 1983 1711 1762 1748 1811 1684 1569 1482 1262 1017 820 672 555 609 716 656 505 507 578 461 103 11 8 7 11 6 3 2 0
341 322 693 926 1258 1336 1447 1676 1883 2238 2429 2741 2934 2993 3044 3144 3174 3029 2804 2722 2785 2782 2776 2763 2887 2993 2945 2889 2788 2760 2716 2602 2564 2754 2884 2925 3049 3117 3246 3294 3254 3174 3094 3042 2974 2682 2163 2099 2046 2140 2220 2367 2432 2404 2269 2132 1984 1714 1502 1437 1372 1339 1171 1080 1122 1082 967 899 798 708 650 646 584 351 0 0 0 0 0 0 0 0 0 0 0
341 500 612 757 831 825 1125 1360 1862 2062 2207 2257 2440 2584 2616 2792 2760 2642 2770 2963 3148 3092 2992 2994 3004 2947 2909 2800 2709 2603 2519 2360 2129 2109 2134 2324 2492 2557 2679 2737 2920 3012 2884 2458 2235 2098 1976 1937 2017 2141 2255 2382 2335 2186 1760 1718 1716 1638 1417 1351 1375 1308 1195 1100 974 782 787 713 637 560 488 201 0 0 0 0 0 0 0 0 0 0 0 0 0
623 450 456 430 639 628 705 1045 1273 1356 1499 1523 1778 1967 2178 2295 2623 2938 3030 2849 2728 2696 2702 2950 3159 3139 3106 2957 2772 2581 2385 2311 2361 2378 2253 2063 2197 2440 2598 2669 2761 2526 2162 1950 1803 1751 1775 1805 1801 1820 1885 1870 1780 1684 1643 1636 1614 1520 1368 1381 1354 1225 1104 1033 864 739 629 455 212 0 0 0 0 0 0 0 0 0 0 0 0 1 2 4 5
466 590 591 340 299 344 367 534 739 829 915 1126 1094 1518 2088 2210 2236 2224 2322 2566 2730 2857 2897 2907 2937 2968 2762 2612 2510 2350 2206 2151 2072 2152 2302 2319 2202 2239 2341 1915 1884 1813 1741 1670 1746 1785 1770 1756 1812 1735 1709 1648 1617 1610 1579 1514 1416 1294 1214 1131 1067 1019 902 809 582 149 0 0 0 0 0 0 1 2 2 1 1 2 4 2 7 9 8 7 5
246 380 436 160 422 383 414 355 426 443 610 841 881 651 447 877 1487 1762 2050 2232 2309 2395 2378 2532 2588 2540 2204 1850 1848 1829 1767 1732 1896 2098 2193 2344 2350 2376 2370 2000 1461 1508 1533 1572 1598 1597 1622 1572 1545 1482 1427 1403 1359 1304 1170 1141 1015 1002 951 817 662 796 0 1 1 0 1 1 1 1 2 2 4 7 8 9 10 8 7 8 9 11 12 10 8
54 137 178 55 1 267 304 244 286 150 335 357 268 23 30 338 572 854 1285 1690 2009 2125 2150 2111 1949 1952 1984 2047 1952 1890 1918 1988 1964 1825 1807 1864 1789 1771 1802 1802 1742 1540 1393 1509 1511 1428 1299 1196 1072 950 959 1105 1159 1097 1028 1031 1074 990 781 448 0 0 1 1 1 2 3 4 5 6 8 10 8 6 6 6 4 1 0 0 0 2 6 5 4
1 1 2 2 2 1 2 203 4 4 3 2 11 27 9 2 1 380 634 882 1285 1575 1820 1986 1957 1945 1892 1835 1812 1668 1602 1704 1792 1926 1856 1861 1763 1446 1293 1218 1174 1200 1229 1438 1522 1335 1163 959 865 848 792 882 940 920 879 874 863 725 351 2 2 2 4 4 4 5 6 6 4 2 3 3 4 2 1 2 3 4 6 8 6 4 2 2 4
1 0 1 2 4 3 3 2 0 1 1 2 3 6 4 4 2 102 222 413 622 824 1025 1129 1355 1503 1600 1559 1451 1233 1151 1174 1320 1662 1682 1528 1554 1139 969 1089 1088 1207 1299 1455 1333 1206 1017 875 787 748 778 821 878 860 800 743 673 508 60 0 0 0 1 1 1 1 0 0 0 1 2 2 2 2 1 0 1 1 1 2 2 1 0 0 2
4 1 1 2 1 3 3 2 3 2 1 0 0 1 2 50 61 41 1 195 283 326 412 505 617 765 902 828 711 674 701 722 772 1013 1144 1238 998 931 995 1062 1152 1226 1262 1280 1236 1116 941 875 850 842 878 815 763 736 685 566 361 8 0 0 0 0 0 0 0 0 0 1 2 2 0 0 0 0 0 0 0 0 0 0 0 0 0 0 1
Wind_Speed
16 18 20 21 23 21 18 16 16 17 16 15 13 12 12 11 10 8 10 8 8 9 9 8 6 4 1 1 2 2 3 4 4 4 5 5 5 5 5 8 8 9 9 10 11 9 10 9 9 8 7 5 4 3 3 3 3 4 4 5 6 6 7 7 9 11 10 10 11 11 11 10 12 11 13 13 14 14 14 13 12 11 13 14 15
16 18 19 21 23 23 21 19 18 18 17 16 14 14 13 13 13 10 10 10 10 10 10 9 8 6 4 3 2 4 5 6 6 6 7 6 7 7 7 6 9 9 8 9 9 9 8 9 8 8 8 7 5 5 4 5 3 4 5 6 6 7 7 7 8 10 13 8 9 9 9 9 12 10 13 13 12 9 9 9 10 11 13 15 15
15 18 19 20 22 24 24 22 20 19 18 17 15 15 14 14 14 11 10 11 12 12 12 10 11 9 7 7 5 6 8 7 7 8 8 8 8 8 9 9 9 10 10 10 10 9 9 7 8 8 8 8 7 5 5 4 5 5 3 4 6 6 6 7 7 9 11 10 7 7 7 8 10 8 7 8 8 8 8 9 10 10 11 13 14
15 17 19 20 22 24 25 24 22 20 19 18 18 17 17 16 16 13 11 12 13 15 14 11 12 12 9 9 8 7 9 9 9 9 10 10 9 8 8 10 10 10 10 11 11 10 10 8 8 7 7 7 6 5 4 4 4 5 6 6 4 4 3 3 5 6 6 8 6 6 6 7 8 7 7 8 7 8 9 10 13 15 16 16 17
15 17 18 21 23 23 24 25 23 22 20 19 19 19 19 19 18 15 13 13 14 16 16 14 14 14 12 12 12 9 9 10 10 10 10 10 10 9 8 8 10 10 10 10 10 10 9 8 8 7 4 5 5 4 3 3 2 3 3 2 2 2 3 4 5 5 5 7 7 5 5 6 7 9 11 11 9 8 9 11 13 14 15 17 17
15 17 17 18 21 23 24 24 24 23 21 20 21 21 20 20 20 18 16 14 16 16 17 16 15 15 15 14 14 13 11 11 11 10 11 11 11 9 8 8 10 11 11 11 10 9 9 8 7 5 5 4 4 3 3 3 1 1 2 3 2 1 0 2 2 2 3 4 4 7 6 8 9 11 15 16 11 6 6 9 12 13 15 16 18
15 17 17 18 18 21 23 23 23 24 23 22 22 22 21 21 21 21 19 17 17 17 17 17 18 18 17 16 15 15 13 13 13 12 10 11 12 10 9 9 9 10 11 12 11 11 10 8 7 6 4 2 3 3 3 3 1 1 3 3 3 3 2 1 0 1 2 3 4 6 7 8 10 8 12 15 10 6 7 8 11 14 15 15 14
16 16 15 15 16 20 20 22 23 24 24 24 24 24 22 22 23 23 22 20 18 18 19 19 20 20 20 17 16 16 15 14 14 14 12 12 13 12 10 9 10 10 11 11 11 11 10 9 8 6 4 2 1 3 3 3 4 3 3 5 6 5 4 3 2 1 2 2 4 3 4 4 4 4 8 11 9 6 7 9 9 9 9 12 15
17 17 14 12 15 18 18 19 21 24 24 24 23 23 24 24 25 25 24 21 20 19 21 21 21 21 21 19 17 17 16 15 16 16 15 13 13 14 12 10 10 11 11 11 11 11 9 9 8 7 6 7 5 4 3 4 5 4 4 5 7 8 7 6 4 3 2 3 2 3 3 4 4 4 6 9 10 9 7 7 7 8 8 9 13
18 17 15 13 14 17 17 17 18 21 23 24 23 23 24 25 25 26 26 24 22 21 22 24 22 22 23 22 19 17 17 17 17 20 19 16 14 14 13 12 10 10 11 11 10 11 11 9 7 11 11 12 11 8 7 6 5 4 6 7 7 9 9 8 6 5 4 4 4 5 4 5 5 4 4 7 8 8 8 7 5 7 7 8 12
19 17 15 15 16 16 16 16 15 17 20 22 22 22 23 25 24 26 27 27 25 24 23 24 24 23 23 22 20 18 17 17 21 22 21 20 17 15 14 14 12 11 10 11 10 9 9 10 7 3 3 8 10 11 9 8 8 7 5 5 8 11 12 11 9 7 6 5 7 7 6 6 7 7 7 6 10 11 9 7 5 6 7 6 5
19 18 17 16 17 18 17 16 14 14 17 19 21 20 22 23 24 24 27 28 28 27 24 23 24 25 24 23 21 19 18 19 24 23 22 20 18 16 15 14 14 13 12 11 10 10 8 9 10 9 6 6 9 8 7 7 8 8 7 6 5 4 8 11 11 10 8 8 7 8 8 8 9 10 10 11 12 10 8 6 6 7 8 9 8
20 19 18 17 17 19 18 17 15 14 14 17 19 19 19 21 22 23 24 28 30 28 26 25 24 25 26 24 22 21 19 23 26 25 23 21 19 17 15 14 14 14 14 12 10 10 10 9 8 8 8 12 10 11 10 7 5 7 7 6 5 4 1 4 7 7 9 8 6 6 8 9 9 12 14 13 13 11 10 7 9 10 10 10 10
21 20 19 17 17 18 19 18 16 14 14 15 17 18 18 18 20 22 23 26 28 27 26 26 25 25 26 26 25 23 20 27 27 27 24 23 21 18 14 15 14 14 15 14 12 10 10 10 10 9 9 9 10 10 12 9 8 8 9 10 9 6 4 3 3 2 8 8 8 6 7 10 8 11 12 12 11 10 10 10 13 12 11 11 10
22 21 19 17 16 17 19 19 18 16 15 15 16 17 17 17 18 21 22 23 26 26 26 26 26 25 25 27 27 25 22 30 29 28 26 24 22 19 15 14 14 15 15 15 15 13 11 11 11 11 11 10 10 11 12 12 11 10 9 10 10 11 10 10 10 10 11 15 11 9 7 8 8 8 11 12 11 13 15 15 15 14 14 13 13
23 21 20 18 15 16 19 20 19 18 16 16 16 17 18 17 17 19 20 21 23 26 26 25 25 25 25 25 25 25 26 33 30 30 28 25 24 20 16 14 13 15 17 16 16 16 14 12 11 11 11 12 12 13 12 12 12 11 11 11 11 12 12 11 11 13 13 15 15 12 11 11 11 13 18 19 16 16 17 17 17 17 17 17 16
23 21 21 20 16 16 18 20 21 20 19 18 18 19 19 18 17 18 19 20 21 23 24 23 25 25 24 25 23 24 28 30 31 30 30 27 25 21 17 15 14 14 16 17 16 17 16 15 13 12 12 12 13 15 13 13 11 11 10 10 11 12 14 16 14 13 15 15 16 16 13 16 21 18 17 18 20 20 19 17 18 20 20 20 20
22 21 21 21 18 17 19 21 22 23 21 19 20 20 21 20 18 19 19 19 19 21 23 23 23 23 23 24 22 23 26 29 28 28 29 30 27 21 18 16 15 15 15 15 16 16 15 14 14 13 12 12 14 17 17 15 11 10 10 10 11 12 15 17 20 20 15 14 17 21 23 20 17 16 15 12 18 22 21 19 20 21 20 21 20
23 22 21 22 21 20 20 21 22 24 24 22 21 21 21 21 20 20 19 18 19 21 22 22 22 23 21 22 22 23 22 28 26 28 27 29 26 20 19 17 15 16 16 15 15 15 15 13 13 13 12 12 13 16 19 18 12 12 11 12 11 11 15 20 20 20 26 26 23 24 22 20 18 19 18 15 18 23 23 22 22 22 20 21 20
24 24 24 24 23 21 20 21 22 23 25 25 22 21 22 22 22 21 20 19 19 19 21 22 21 20 21 21 22 22 19 25 25 25 27 27 26 22 19 17 15 15 16 17 17 17 15 15 15 14 13 12 12 15 20 19 15 14 15 13 12 11 18 19 20 24 26 26 26 26 22 22 23 23 21 21 23 27 27 26 25 23 22 21 22
30 28 26 25 24 22 22 23 23 24 25 25 23 21 22 22 23 22 21 19 18 17 18 19 19 20 19 19 19 19 18 20 24 23 24 26 24 22 18 15 14 15 17 17 17 17 17 17 15 17 18 15 14 14 19 20 16 16 17 15 15 22 25 24 23 23 22 23 24 24 23 22 22 22 21 21 21 25 30 28 27 27 26 24 22
34 32 30 27 26 24 23 24 24 24 25 25 23 21 21 22 22 23 21 20 19 18 16 17 18 19 18 19 18 17 19 17 25 20 22 23 23 21 16 14 14 15 16 17 17 17 17 19 18 18 20 18 16 14 16 20 20 19 17 22 29 27 25 23 20 19 19 19 20 21 21 22 23 24 24 23 28 29 31 29 29 27 25 25 25
38 36 33 31 29 27 28 27 25 24 26 25 23 22 22 22 22 23 21 19 18 18 17 16 17 18 18 18 18 17 19 19 26 22 19 20 20 18 14 13 15 15 15 16 17 17 18 17 17 19 21 20 18 16 15 18 22 20 20 21 25 27 22 21 23 21 19 18 18 21 22 23 25 26 23 26 33 31 32 30 29 28 26 26 28
42 40 36 32 31 30 30 28 26 24 26 26 24 22 22 22 22 22 21 19 18 17 18 17 16 15 16 17 17 18 18 21 21 23 20 19 17 17 14 10 16 15 15 14 17 16 15 15 15 16 20 20 20 18 16 17 19 21 23 21 21 22 22 21 20 20 20 19 19 21 24 25 25 25 30 33 33 31 30 30 28 28 28 29 29
44 42 39 35 33 32 31 29 28 26 27 27 24 22 22 22 22 21 20 17 17 17 18 17 16 15 15 15 16 18 18 20 22 18 20 18 17 15 14 13 10 14 14 14 12 15 20 19 17 15 18 19 20 19 16 16 17 23 26 26 24 24 24 23 22 24 23 24 25 27 29 28 27 33 35 35 33 31 32 31 30 28 29 31 32
45 43 40 37 35 33 32 31 30 27 28 27 25 22 21 21 20 20 19 17 17 18 18 18 17 16 15 15 16 17 19 18 22 21 18 17 15 15 15 14 12 11 11 12 17 20 16 21 22 19 15 10 12 14 14 15 19 22 24 24 22 22 23 24 25 26 25 27 30 33 31 31 35 35 36 36 35 33 34 33 31 30 32 34 33
46 44 41 38 37 35 33 32 32 29 28 27 24 22 20 19 18 19 18 16 17 18 19 19 18 17 15 16 17 18 19 18 21 23 23 22 19 16 13 10 9 8 7 14 16 16 16 14 16 15 16 15 11 13 15 19 22 21 21 21 20 21 22 23 25 26 26 28 32 33 35 36 35 36 36 36 34 35 37 37 35 34 34 35 35
44 41 40 39 38 36 33 33 34 31 30 27 24 21 19 18 17 17 17 17 18 19 20 20 19 18 18 19 19 19 18 19 18 22 21 21 20 19 17 14 12 11 9 9 10 11 14 18 17 17 17 17 16 18 18 21 22 24 25 25 25 25 27 29 30 32 34 36 37 36 34 33 36 35 35 34 36 37 38 39 37 36 35 36 36
42 39 39 39 37 36 35 36 36 33 33 28 26 24 18 18 18 17 16 16 17 19 20 20 20 20 21 21 20 18 18 17 16 19 19 19 21 19 17 14 12 13 11 12 11 10 13 18 18 18 19 18 19 20 22 24 24 26 28 29 29 31 35 35 37 38 38 38 39 39 40 39 37 38 35 36 36 37 40 41 38 36 37 37 37
39 39 39 37 36 37 36 36 36 34 33 31 36 33 37 37 30 18 19 30 33 29 23 21 20 20 19 20 20 18 17 15 17 19 24 21 20 20 18 18 16 15 16 18 16 14 15 17 18 19 19 20 20 21 23 25 27 28 29 32 32 34 39 39 41 42 42 42 41 42 42 42 42 39 37 37 36 40 44 42 38 38 39 38 38
37 37 37 35 35 37 38 39 38 36 35 38 33 33 32 37 40 37 34 31 33 35 35 33 28 23 20 24 25 30 22 28 27 25 23 22 21 20 19 19 20 19 25 27 21 18 18 19 20 21 21 21 22 23 25 26 29 32 34 36 36 38 41 41 42 43 44 44 46 47 46 46 44 41 40 36 38 42 43 40 38 40 39 39 38
36 37 36 36 37 40 40 41 40 38 39 38 34 32 33 32 33 35 34 32 34 35 36 37 36 35 32 29 27 27 27 24 28 28 25 23 22 22 23 25 24 27 30 34 27 23 21 21 22 23 24 24 25 27 28 31 35 36 37 37 39 42 44 46 46 48 51 53 50 43 44 46 45 43 37 38 41 41 39 39 39 39 38 38 38
44 41 40 40 42 43 44 44 41 39 40 35 32 32 32 31 31 28 29 33 35 36 38 39 38 37 37 35 31 28 28 27 28 30 28 27 27 27 29 30 31 33 39 34 27 25 25 26 26 28 29 29 31 33 34 35 37 39 40 42 45 47 50 52 53 52 52 50 50 44 39 40 42 39 36 37 36 34 37 38 38 37 38 37 38
53 54 59 60 52 46 46 45 41 39 40 35 32 32 32 32 32 31 28 26 29 32 37 40 39 38 40 38 38 38 36 34 33 34 34 33 32 32 36 36 39 37 34 32 30 28 29 29 30 32 33 34 36 40 40 41 44 46 48 49 49 51 53 52 51 47 45 44 39 34 33 37 36 35 31 29 30 34 35 35 35 36 37 37 36
56 51 50 56 60 54 48 46 42 39 40 36 34 34 35 33 34 31 29 29 28 28 27 31 36 41 38 38 40 40 38 37 39 40 40 39 40 43 47 42 38 35 33 31 33 32 32 34 34 36 38 39 43 47 48 48 49 50 49 50 51 50 50 48 46 42 40 38 36 30 33 35 33 30 31 30 33 33 34 34 34 37 37 37 38
60 54 53 56 59 57 53 50 44 41 41 40 37 37 37 36 35 34 33 33 31 31 32 33 33 36 44 45 45 45 44 43 41 41 42 45 46 48 42 39 39 38 37 36 35 35 36 37 38 39 42 43 45 46 46 47 49 50 49 50 49 46 47 46 43 40 37 33 32 34 35 33 29 29 31 33 33 34 35 35 35 37 39 38 41
59 57 56 56 56 58 60 55 48 44 46 45 44 45 45 46 47 40 36 34 35 35 35 35 36 39 41 42 44 48 49 49 50 50 47 44 43 43 41 42 41 43 42 43 43 44 44 43 41 43 45 45 44 44 46 48 50 49 48 48 47 46 45 42 39 38 37 34 32 31 33 35 33 33 32 33 34 35 36 37 38 38 38 41 44
56 57 55 58 62 60 55 54 55 55 53 52 52 52 56 52 43 42 42 38 38 38 39 39 40 40 40 39 38 40 45 50 54 53 50 48 45 46 48 47 49 49 49 49 47 47 47 47 46 46 46 47 47 47 49 49 49 49 48 48 47 45 44 41 38 39 40 36 34 34 37 35 34 33 35 36 37 36 38 41 40 39 41 nan nan
55 60 64 65 66 67 64 62 57 53 52 52 51 53 49 44 45 45 43 41 41 42 42 43 42 43 42 40 40 40 42 42 42 44 46 46 47 47 48 51 52 52 51 50 50 50 49 49 48 49 49 48 49 48 50 49 47 46 45 45 44 44 42 40 40 41 41 37 34 35 40 37 36 37 38 38 40 42 42 nan nan nan nan nan nan
56 57 57 62 62 64 61 58 56 54 51 50 53 55 51 47 45 45 44 43 44 44 45 46 46 44 43 42 41 39 42 44 44 45 45 47 49 51 51 52 52 51 51 51 50 49 49 48 48 48 49 49 48 47 47 46 44 43 44 45 44 43 42 40 40 41 39 38 37 37 40 41 39 41 42 43 42 nan 48 46 46 nan nan nan nan
54 56 55 57 62 59 57 58 59 54 50 52 53 54 53 52 50 48 46 46 48 49 50 49 48 46 45 44 45 42 46 47 47 48 49 50 51 51 51 52 51 51 49 49 47 47 47 46 46 46 46 46 46 46 45 44 41 42 42 43 42 42 42 40 40 39 39 39 38 37 38 42 44 44 45 46 45 nan nan nan nan nan nan nan nan
nan 56 56 55 57 56 55 58 57 55 51 53 54 51 51 52 51 50 49 48 51 51 51 50 49 49 52 56 52 51 49 48 48 48 47 47 47 47 47 47 45 44 44 44 45 45 45 45 45 44 45 45 46 46 45 44 42 41 41 42 43 43 43 42 40 40 40 40 40 43 42 44 49 50 48 46 46 nan nan nan nan nan nan nan nan
62 61 57 55 56 57 56 54 54 51 49 51 51 50 51 52 52 50 49 51 53 52 51 51 50 49 51 53 55 53 47 47 46 46 45 44 43 43 43 42 43 43 44 44 44 45 46 45 46 46 46 47 48 47 46 45 44 46 47 47 47 47 46 45 46 45 44 47 49 50 52 53 51 52 nan nan nan nan nan nan nan nan nan nan nan
66 65 62 59 58 58 57 56 54 49 47 50 52 51 52 52 50 51 52 54 54 54 53 51 49 48 48 49 50 49 45 44 42 43 45 44 43 42 43 44 45 46 46 46 46 46 46 47 47 48 48 48 49 50 48 47 48 49 49 50 50 49 48 48 49 48 48 49 51 53 53 53 nan nan nan nan nan nan nan nan nan nan nan nan nan
67 66 64 62 60 59 59 59 58 55 53 51 52 52 52 52 52 53 53 52 54 54 52 51 50 50 48 46 45 45 44 44 46 47 46 46 45 45 45 46 46 47 47 47 47 47 48 49 51 52 52 52 52 52 52 53 53 54 54 53 53 53 51 50 50 51 51 52 54 nan nan nan nan nan nan nan nan nan nan nan nan nan nan nan nan
68 67 65 64 62 60 59 60 62 62 60 57 56 55 54 55 55 53 53 53 54 52 52 52 51 50 49 49 49 50 49 48 48 48 49 49 48 48 49 48 46 47 47 47 47 47 48 50 51 53 54 54 54 54 54 56 57 57 57 56 56 56 53 51 51 53 nan nan nan nan nan nan nan nan nan nan nan nan nan nan nan nan nan nan nan
67 67 67 67 65 64 62 62 64 65 64 61 58 57 56 56 56 57 58 57 57 55 54 54 53 52 51 50 50 51 52 52 51 51 51 52 52 52 52 52 51 51 50 49 49 49 49 49 49 50 51 52 53 55 56 57 59 59 58 58 57 56 nan nan nan nan nan nan nan nan nan nan nan nan nan nan nan nan nan nan nan nan nan nan nan
nan 67 67 nan nan 66 64 64 68 71 68 65 61 nan nan 58 58 57 55 57 58 57 57 58 58 57 57 56 55 55 55 55 54 53 53 55 56 56 56 56 57 56 55 55 54 53 53 53 53 53 54 55 56 57 58 58 58 59 59 59 nan nan nan nan nan nan nan nan nan nan nan nan nan nan nan nan nan nan nan nan nan nan nan nan nan
nan nan nan nan nan nan nan 66 nan nan nan nan nan nan nan nan nan 60 58 57 60 59 59 59 61 62 61 59 56 57 59 57 59 58 57 57 57 57 58 59 61 61 61 60 59 58 58 58 59 59 61 62 62 62 61 60 59 59 58 nan nan nan nan nan nan nan nan nan nan nan nan nan nan nan nan nan nan nan nan nan nan nan nan nan nan
nan nan nan nan nan nan nan nan nan nan nan nan nan nan nan nan nan 62 63 63 62 62 64 66 66 63 63 64 63 60 60 60 61 61 62 62 62 62 64 65 64 64 65 65 63 62 62 62 62 62 63 63 64 63 62 61 59 57 nan nan nan nan nan nan nan nan nan nan nan nan nan nan nan nan nan nan nan nan nan nan nan nan nan nan nan
nan nan nan nan nan nan nan nan nan nan nan nan nan nan nan nan nan nan nan 67 69 70 68 66 66 67 67 68 68 68 68 68 68 67 67 67 66 67 68 68 68 68 68 68 68 68 67 66 65 65 64 63 62 60 59 59 59 nan nan nan nan nan nan nan nan nan nan nan nan nan nan nan nan nan nan nan nan nan nan nan nan nan nan nan nan
Wind_Direction
287 271 266 267 270 275 277 267 269 262 267 264 261 257 253 252 256 238 238 229 228 232 239 234 239 229 231 225 359 331 335 354 352 349 2 6 27 31 41 10 28 38 45 56 56 43 45 51 50 41 42 57 54 77 93 78 11 21 59 74 62 57 57 62 74 84 82 71 77 78 83 84 82 64 63 57 55 44 32 32 31 26 21 16 11
285 275 268 267 275 278 279 271 267 262 273 271 271 266 261 253 256 240 244 236 234 238 237 237 237 245 234 242 247 297 308 319 336 330 341 357 4 10 30 16 11 27 32 37 46 57 46 46 52 46 38 42 54 53 66 91 71 35 37 62 71 71 54 57 64 74 85 84 87 86 84 72 76 57 48 44 39 34 40 44 36 25 22 19 16
293 274 270 267 270 272 273 272 269 274 281 276 283 282 273 268 260 254 244 243 237 237 237 235 235 247 236 241 248 270 297 310 319 322 331 350 358 4 2 13 9 11 24 28 27 33 53 57 49 42 42 42 35 51 75 91 111 116 83 54 57 60 59 47 57 72 83 88 82 94 80 68 59 59 35 22 29 42 48 46 41 29 23 24 21
312 293 281 278 277 271 271 272 281 281 283 277 286 284 280 277 268 265 252 246 245 240 244 240 238 245 246 246 259 260 285 302 314 322 327 340 353 359 354 355 7 8 13 19 20 17 26 43 55 48 36 38 35 28 33 72 115 121 136 146 143 129 118 94 53 70 86 100 95 80 76 70 62 47 22 4 20 37 32 33 30 28 26 22 22
320 312 301 293 286 277 280 278 279 283 284 280 288 286 284 282 274 276 266 255 252 248 246 246 241 248 253 252 264 270 277 297 308 319 319 326 341 350 352 344 354 3 9 14 15 11 15 25 40 50 44 31 27 23 22 46 63 126 145 154 115 109 116 109 107 109 113 109 114 99 78 54 39 35 20 17 17 23 23 23 22 19 17 16 16
319 316 314 306 291 289 284 283 285 286 283 280 285 285 282 281 282 278 277 266 259 258 254 253 248 254 254 256 261 271 273 286 298 310 320 321 325 337 339 344 350 357 5 13 14 10 11 14 29 40 39 29 23 7 2 25 45 128 166 177 213 248 42 77 91 95 92 94 92 101 76 61 47 32 23 21 34 55 38 28 21 18 16 15 10
309 315 322 323 305 296 294 290 284 283 278 274 273 276 279 282 284 284 278 274 272 271 267 260 253 258 261 260 263 269 275 285 293 304 310 310 315 323 335 340 348 351 358 10 15 10 12 13 12 23 45 35 357 341 324 344 332 206 220 225 227 228 211 184 140 49 22 40 47 43 56 38 34 42 25 27 37 45 57 37 26 15 15 9 7
308 308 315 321 316 312 300 290 288 281 277 269 267 272 274 275 275 276 275 278 280 277 277 271 261 262 267 267 266 268 275 283 291 300 305 306 307 316 327 332 344 349 355 1 9 11 3 9 17 9 17 22 329 289 295 292 291 285 251 233 234 237 233 233 244 273 310 331 4 10 349 14 19 19 33 33 34 36 19 9 8 359 7 359 357
305 309 310 316 317 314 303 293 286 282 282 277 273 271 271 268 270 272 273 276 276 277 275 277 272 270 271 271 271 271 278 284 287 295 302 308 307 315 322 329 333 338 346 356 0 0 1 2 4 8 343 2 11 343 321 297 275 280 273 252 237 239 238 248 250 261 280 294 331 326 342 358 8 25 22 14 14 16 340 310 327 344 354 359 355
298 306 310 307 302 307 308 302 296 290 288 285 280 275 271 269 268 271 274 274 269 267 267 272 279 277 275 277 275 274 275 278 292 311 310 306 308 311 311 318 326 330 333 342 352 352 357 2 6 12 4 357 359 2 354 350 329 294 271 263 255 243 241 239 244 249 267 287 296 300 317 330 325 327 336 332 342 322 294 282 310 333 344 1 357
292 295 296 294 294 302 306 307 305 303 298 289 285 281 278 273 267 266 269 272 269 265 263 270 278 278 280 281 283 278 276 280 301 305 313 321 312 307 305 308 319 325 329 328 336 341 337 339 337 351 326 336 346 354 354 348 348 343 338 296 259 247 236 237 242 248 259 276 286 294 306 312 311 304 295 294 298 311 309 285 290 315 328 337 356
286 285 287 288 292 302 305 306 310 311 305 301 296 287 281 279 275 269 269 273 269 266 267 267 268 273 276 280 283 281 276 284 298 305 310 317 315 306 304 301 308 320 326 329 326 328 331 327 326 332 319 304 298 320 340 351 345 346 346 339 323 274 259 253 242 236 242 247 269 284 286 297 291 292 289 284 293 306 305 287 291 308 316 324 330
278 279 282 287 291 298 301 305 310 311 312 308 300 293 286 284 283 278 275 271 270 268 269 269 267 268 272 276 278 278 275 283 294 303 308 314 319 310 299 298 302 311 318 324 321 316 317 317 314 307 316 342 334 313 310 308 328 351 340 323 310 306 270 240 258 258 251 254 258 266 279 271 277 286 285 286 298 312 310 297 284 289 307 319 325
276 279 276 281 287 293 297 302 306 309 308 307 303 302 294 287 284 280 274 270 272 272 272 270 267 265 266 272 272 272 274 277 296 301 307 314 318 312 296 295 297 300 306 313 315 313 313 314 317 314 300 292 296 308 305 300 284 278 276 271 273 284 278 253 213 242 277 280 275 283 286 284 293 291 290 287 290 307 312 301 288 295 309 318 319
271 272 273 274 280 289 296 300 302 303 307 308 305 306 301 288 285 280 277 274 272 271 270 267 265 266 266 266 270 273 274 283 294 300 305 311 315 306 294 289 283 286 291 299 306 311 309 313 314 314 307 303 300 300 301 298 283 272 274 272 277 274 270 263 261 261 275 285 292 292 302 305 312 306 293 291 301 303 300 294 291 297 305 309 319
272 272 271 272 276 285 294 297 297 298 303 308 309 309 304 297 288 280 279 279 273 268 265 264 267 268 267 265 266 272 269 284 293 299 303 306 310 288 292 290 275 267 274 289 299 302 307 308 306 311 307 304 312 325 312 294 289 282 274 269 267 272 273 272 277 279 282 286 297 306 301 317 299 291 283 280 279 284 287 290 294 300 304 310 319
277 278 276 272 273 281 290 295 294 296 301 309 313 311 305 299 288 278 280 280 278 276 273 270 263 267 268 266 262 262 262 278 290 298 298 305 296 281 297 286 279 272 260 264 277 289 298 303 303 304 308 304 309 314 319 306 287 286 274 265 260 260 263 265 289 302 302 306 309 319 321 280 273 279 278 285 285 284 288 296 305 302 308 311 313
282 279 277 275 274 277 283 290 292 294 299 309 311 305 302 297 295 284 284 284 284 282 276 270 266 265 269 270 272 261 261 270 288 292 298 299 299 290 290 284 278 274 267 269 271 274 285 309 310 307 305 299 310 312 312 305 292 287 273 259 252 253 254 254 250 259 276 282 274 267 271 284 280 278 288 291 296 293 299 314 311 300 305 311 312
283 285 280 276 271 271 280 285 288 293 297 303 304 302 302 300 294 286 285 283 280 273 272 271 267 265 273 273 276 273 265 270 288 290 294 296 294 284 283 281 279 274 274 275 280 281 285 295 317 318 310 308 312 308 309 305 295 289 276 260 251 246 251 253 258 257 263 265 274 282 285 294 301 300 304 322 317 308 308 314 306 303 309 308 307
283 280 274 271 270 272 276 281 285 291 294 298 298 297 292 294 297 292 287 283 278 278 278 275 276 270 270 271 271 274 276 267 284 295 296 297 302 287 278 280 281 280 277 279 280 286 292 293 303 324 333 330 324 314 308 313 299 285 277 269 258 252 249 258 260 256 261 271 273 283 289 293 297 302 306 310 308 310 310 306 305 306 307 308 307
270 271 273 274 275 278 278 280 288 291 291 294 298 294 294 296 298 293 292 286 282 283 283 280 280 273 271 270 270 276 276 270 278 297 296 299 305 299 282 285 280 276 275 276 278 280 284 289 290 308 328 338 337 326 309 310 302 286 281 274 266 256 250 257 258 254 264 267 278 288 292 293 295 294 296 298 302 301 299 301 304 304 299 303 303
267 269 273 274 275 280 284 280 282 286 286 290 293 293 290 294 292 291 289 281 284 287 283 276 277 274 271 270 267 268 275 288 268 288 297 301 306 316 288 287 282 275 272 271 274 274 277 282 289 302 322 335 340 332 316 301 298 284 278 272 265 258 259 263 268 273 275 275 276 278 280 284 284 282 278 279 280 279 285 290 292 291 297 299 300
266 270 272 273 273 278 279 282 280 284 283 288 292 291 289 290 287 283 280 276 280 286 285 277 272 270 269 266 263 263 260 270 284 284 296 302 309 315 318 288 292 276 272 271 275 276 278 283 290 314 321 327 332 332 323 315 293 287 289 279 275 272 273 271 272 273 274 278 283 286 283 279 277 276 283 287 283 281 284 290 292 295 298 301 300
262 268 271 273 272 275 277 283 284 282 281 285 288 288 288 286 281 276 273 271 274 279 279 279 273 271 268 265 261 259 257 254 270 290 292 306 305 314 323 311 288 279 276 271 272 280 287 294 296 307 315 320 324 327 328 319 300 305 297 288 277 271 271 277 279 280 282 286 288 287 283 280 281 285 283 279 279 281 284 287 290 294 296 296 300
259 264 268 271 270 271 272 276 279 278 277 283 285 286 286 283 276 270 267 267 269 273 276 275 275 269 263 261 256 254 254 252 252 270 293 297 306 311 321 326 303 295 286 280 283 273 267 267 261 296 313 319 325 329 328 326 316 294 295 292 290 280 283 285 284 282 282 283 282 278 274 278 283 281 282 280 281 284 288 290 288 290 295 296 299
257 261 264 266 268 269 273 278 277 277 276 278 282 281 282 280 276 268 266 262 262 268 268 267 267 264 259 256 253 251 250 249 248 251 256 280 287 308 319 326 331 317 307 284 276 272 267 260 261 265 271 279 293 293 299 308 316 308 300 298 290 289 287 286 285 283 280 277 276 275 279 279 279 281 282 285 287 293 293 291 291 295 294 295 297
254 256 259 261 263 265 270 272 275 278 277 280 279 276 276 276 274 268 266 262 263 264 263 263 261 260 258 252 249 246 248 249 249 247 250 252 251 267 279 295 329 329 293 267 272 268 267 264 262 263 263 289 290 291 291 292 295 299 306 309 308 303 299 294 289 288 288 281 275 276 277 283 289 286 289 292 295 294 294 293 293 293 294 298 299
249 253 257 256 257 261 263 270 273 274 277 280 279 282 281 280 279 275 272 270 266 264 261 260 260 259 255 252 249 249 249 253 255 254 257 259 263 266 274 281 286 287 283 274 276 280 277 272 280 280 282 285 291 294 297 295 299 300 304 306 305 303 295 290 287 280 281 284 288 293 295 296 294 296 295 295 294 293 291 290 292 295 297 297 300
247 251 252 251 253 255 258 261 265 269 267 270 262 253 262 277 276 270 266 264 260 262 258 255 256 255 254 252 256 257 260 260 263 268 277 287 283 276 275 283 284 278 308 323 299 293 288 284 289 290 289 293 293 295 295 294 293 293 295 297 296 293 289 291 292 293 297 299 300 300 298 295 294 291 290 290 293 293 290 290 294 296 296 298 300
245 246 247 247 250 254 254 259 264 264 268 265 249 246 238 238 232 248 260 234 233 233 245 253 255 257 257 255 255 266 267 264 263 275 290 295 298 302 301 303 308 299 306 316 301 288 290 284 286 289 290 291 294 292 294 291 291 291 290 286 287 288 290 294 297 298 298 298 298 294 288 283 283 282 284 286 289 289 289 290 293 295 295 295 295
241 242 242 242 246 250 253 254 258 258 261 255 252 248 245 235 233 231 233 238 239 240 239 241 240 244 252 249 238 231 245 267 269 277 287 291 293 290 291 294 298 302 293 285 277 284 281 282 282 284 288 289 291 291 288 289 287 287 287 286 288 289 292 294 290 289 285 279 272 271 272 276 275 272 273 276 282 282 285 290 292 293 291 290 292
239 237 238 239 243 245 247 249 253 254 254 250 249 253 250 250 241 230 230 235 236 237 236 234 237 242 249 258 254 239 237 247 271 279 287 288 292 293 290 289 291 290 288 293 287 288 285 287 287 287 286 289 288 285 286 287 287 287 287 288 290 287 286 281 278 278 278 279 279 279 279 280 280 276 274 275 277 280 284 285 283 283 286 290 292
218 224 226 229 235 241 242 243 246 249 251 253 253 254 253 252 253 246 233 234 240 237 233 230 231 235 245 247 248 255 262 260 267 274 285 290 290 288 286 287 289 286 278 280 283 284 285 286 286 285 284 282 282 283 283 283 285 289 291 289 285 284 285 288 289 288 289 293 296 298 294 289 286 281 276 275 278 281 283 283 284 287 292 294 293
231 220 215 211 213 226 235 238 241 242 246 248 249 252 253 251 249 252 252 251 243 237 234 232 229 234 236 243 257 259 259 263 266 272 276 279 281 281 276 266 264 269 281 284 281 279 280 283 282 281 281 280 280 282 283 283 280 280 279 282 286 287 287 288 287 290 288 290 290 292 293 284 280 280 282 287 290 285 283 287 290 290 291 292 295
229 226 223 218 211 209 218 230 236 237 242 244 245 248 249 248 250 250 253 252 254 250 248 239 235 232 239 241 241 251 260 264 266 267 268 271 272 270 266 264 267 266 263 268 279 282 284 284 284 283 283 284 283 280 278 280 283 284 286 287 287 287 289 291 291 291 289 291 295 301 298 298 295 295 294 287 282 282 285 286 289 291 293 294 295
229 226 228 228 220 210 206 213 227 231 235 240 242 243 244 244 245 246 247 249 251 253 250 246 242 240 243 241 241 244 246 247 252 258 268 274 275 276 270 269 272 273 275 277 279 281 279 278 280 283 283 281 281 279 277 278 281 283 284 285 285 287 291 293 292 294 295 293 295 294 287 286 289 290 287 285 286 288 289 294 297 293 290 293 295
231 228 226 228 229 218 209 204 208 223 229 235 236 233 234 232 231 236 241 241 247 249 252 254 252 249 247 246 247 247 249 252 254 255 254 261 271 271 268 272 273 273 276 276 271 270 269 268 267 272 275 276 275 274 274 274 276 279 280 281 282 285 290 292 289 287 290 293 290 290 290 292 290 287 284 284 289 292 294 293 291 291 295 296 297
233 231 228 227 227 219 216 210 207 212 222 228 230 229 231 232 228 230 236 241 246 250 252 254 255 256 257 255 253 252 255 258 257 254 256 259 259 260 259 260 262 264 264 263 264 265 266 265 265 266 268 271 273 273 272 273 274 275 277 279 282 285 289 288 287 284 285 289 290 288 283 281 283 288 289 288 286 287 288 288 289 292 292 nan nan
229 228 226 227 228 221 215 213 208 210 218 228 232 236 241 240 237 237 239 243 246 247 249 252 254 255 256 259 259 261 261 260 259 259 259 261 259 258 258 260 261 263 263 263 263 263 263 264 263 265 266 266 266 267 269 271 273 275 277 279 280 282 283 282 283 282 284 287 286 288 289 289 288 286 285 286 287 288 288 nan nan nan nan nan nan
226 226 227 231 232 223 218 215 213 214 217 225 230 233 236 239 240 240 241 243 245 247 249 251 253 256 259 261 261 261 261 260 259 259 259 257 257 257 259 260 261 261 261 261 260 259 260 259 259 261 264 266 268 268 267 268 270 272 273 276 279 280 280 282 282 283 285 287 289 287 286 287 288 285 285 286 288 nan 287 290 290 nan nan nan nan
229 224 223 224 227 226 221 220 217 216 219 223 229 233 234 233 233 236 241 244 245 246 247 249 249 250 251 253 251 251 260 260 259 256 255 256 255 256 257 258 259 260 260 261 260 259 257 256 256 259 261 263 265 267 268 270 271 272 272 275 278 279 280 281 281 281 282 281 280 278 275 276 281 283 283 280 281 nan nan nan nan nan nan nan nan
nan 227 222 220 224 228 227 221 218 216 219 221 224 228 231 232 232 234 235 238 245 247 249 249 249 250 250 251 255 259 259 259 259 258 257 256 257 258 259 260 260 261 260 259 258 257 256 256 256 256 257 257 258 260 263 264 265 270 274 274 274 275 273 271 270 273 277 282 277 271 271 276 281 282 282 283 284 nan nan nan nan nan nan nan nan
233 233 228 225 226 230 232 227 222 220 220 220 222 223 225 229 236 237 237 239 242 243 245 248 249 250 250 250 254 257 259 259 260 259 257 256 255 256 257 257 257 256 256 257 258 258 259 259 259 259 259 259 260 262 264 265 267 269 269 270 270 269 269 270 271 271 270 271 272 273 274 275 275 274 nan nan nan nan nan nan nan nan nan nan nan
232 233 234 234 234 234 232 231 229 226 224 223 224 225 226 227 230 236 239 241 241 243 244 246 248 252 255 255 256 257 257 257 257 259 260 260 259 258 258 257 257 257 257 257 257 259 261 263 264 264 263 264 265 266 266 266 267 267 268 269 269 268 268 268 269 267 268 270 271 272 274 274 nan nan nan nan nan nan nan nan nan nan nan nan nan
232 234 236 237 237 238 236 231 229 232 230 226 225 226 227 229 230 232 235 239 242 245 247 250 252 255 256 255 256 257 258 260 262 261 260 260 260 260 259 259 260 261 262 262 263 263 264 265 266 265 265 266 266 267 268 268 267 267 268 268 269 269 269 269 269 270 271 272 273 nan nan nan nan nan nan nan nan nan nan nan nan nan nan nan nan
232 234 237 239 240 240 240 236 231 229 230 229 228 226 227 228 231 233 236 240 243 246 250 252 255 256 258 260 261 262 261 261 262 263 264 265 265 266 267 266 265 265 266 266 266 266 266 266 265 265 264 264 264 266 267 268 268 268 268 269 269 271 271 272 273 272 nan nan nan nan nan nan nan nan nan nan nan nan nan nan nan nan nan nan nan
232 233 235 237 239 241 242 240 236 234 231 230 230 230 227 226 229 234 238 242 246 248 250 253 254 256 257 258 259 261 263 264 264 266 267 268 268 269 270 269 267 266 265 265 266 267 267 266 265 265 265 265 264 265 266 267 268 268 268 268 269 269 nan nan nan nan nan nan nan nan nan nan nan nan nan nan nan nan nan nan nan nan nan nan nan
nan 236 236 nan nan 242 242 241 240 239 237 234 231 nan nan 231 231 234 238 242 244 247 249 251 252 253 254 255 257 260 262 263 263 263 264 266 267 268 268 268 267 267 266 264 264 264 264 265 265 266 267 267 268 268 268 267 267 268 268 270 nan nan nan nan nan nan nan nan nan nan nan nan nan nan nan nan nan nan nan nan nan nan nan nan nan
nan nan nan nan nan nan nan 246 nan nan nan nan nan nan nan nan nan 239 242 245 246 246 248 250 251 252 253 253 254 257 258 260 261 262 263 262 262 262 263 264 264 265 265 264 263 263 263 264 265 266 268 269 270 269 269 267 266 267 267 nan nan nan nan nan nan nan nan nan nan nan nan nan nan nan nan nan nan nan nan nan nan nan nan nan nan
nan nan nan nan nan nan nan nan nan nan nan nan nan nan nan nan nan 242 246 247 247 248 250 252 252 251 252 253 254 255 256 258 260 262 264 264 264 264 263 263 263 264 265 265 265 264 264 264 264 264 265 267 268 268 267 266 266 266 nan nan nan nan nan nan nan nan nan nan nan nan nan nan nan nan nan nan nan nan nan nan nan nan nan nan nan
nan nan nan nan nan nan nan nan nan nan nan nan nan nan nan nan nan nan nan 249 250 251 251 252 253 253 254 255 257 258 259 260 261 263 264 265 265 265 265 266 267 266 266 267 267 266 266 266 266 265 265 265 267 267 265 263 265 nan nan nan nan nan nan nan nan nan nan nan nan nan nan nan nan nan nan nan nan nan nan nan nan nan nan nan nan